CW6017 Weather Reports


Display with metric or nautical units.
time (UTC)temp
F
wind
direction
speed
MPH
gust
MPH
rain 1hr
in
rain 24hr
in
rain mn
in
humidity
%
barometer
mb
20190221161543 18 272 2.0 8.0 0.00 0.01 0.00 78 1022.5
20190221160048 17 272 3.0 9.0 0.00 0.01 0.00 79 1022.4
20190221154556 17 246 2.0 7.0 0.00 0.01 0.00 79 1022.5
20190221153030 17 260 3.0 9.0 0.00 0.01 0.00 80 1021.9
20190221151513 16 272 1.0 9.0 0.00 0.01 0.00 81 1021.8
20190221150012 16 260 2.0 7.0 0.00 0.01 0.00 82 1021.6
20190221144506 16 263 0.0 7.0 0.00 0.01 0.00 83 1021.3
20190221143010 15 272 1.0 9.0 0.00 0.01 0.00 84 1021.2
20190221141714 14 271 0.0 9.0 0.00 0.01 0.00 85 1020.8
20190221140219 14 221 0.0 7.0 0.00 0.01 0.00 86 1020.6
20190221134642 14 267 0.0 5.0 0.00 0.01 0.00 87 1020.2
20190221133139 13 253 0.0 4.0 0.00 0.01 0.00 87 1019.9
20190221131615 13 257 1.0 4.0 0.00 0.01 0.00 87 1019.6
20190221130057 13 250 0.0 3.0 0.00 0.01 0.00 88 1019.3
20190221124653 13 252 0.0 3.0 0.00 0.01 0.00 88 1019.0
20190221123133 14 252 0.0 4.0 0.00 0.01 0.00 88 1018.7
20190221121625 14 269 0.0 3.0 0.00 0.01 0.00 88 1018.6
20190221120128 14 237 0.0 2.0 0.00 0.01 0.00 88 1018.4
20190221114600 15 259 0.0 5.0 0.00 0.01 0.00 87 1018.0
20190221113113 15 248 0.0 4.0 0.00 0.01 0.00 88 1018.0
20190221111549 16 276 1.0 7.0 0.00 0.01 0.00 88 1017.8
20190221110045 16 242 0.0 4.0 0.00 0.01 0.00 87 1017.5
20190221104528 17 244 1.0 8.0 0.00 0.01 0.00 87 1017.2
20190221103022 17 252 2.0 9.0 0.00 0.01 0.00 86 1017.0
20190221101531 18 264 1.0 9.0 0.00 0.01 0.00 86 1016.6
20190221100038 18 260 1.0 7.0 0.00 0.01 0.00 86 1016.4
20190221094511 18 250 1.0 8.0 0.00 0.01 0.00 86 1016.4
20190221093014 18 241 1.0 7.0 0.00 0.01 0.00 86 1016.3
20190221091506 18 253 0.0 6.0 0.00 0.01 0.00 86 1016.0
20190221090144 18 258 0.0 7.0 0.00 0.01 0.00 85 1015.8
20190221084725 18 260 0.0 4.0 0.00 0.01 0.00 85 1015.6
20190221083142 19 261 0.0 3.0 0.00 0.01 0.00 85 1015.5
20190221081627 19 244 0.0 3.0 0.00 0.01 0.00 84 1015.5
20190221080117 20 259 0.0 5.0 0.00 0.01 0.00 84 1015.2
20190221074741 20 271 0.0 7.0 0.00 0.01 0.00 83 1014.9
20190221073151 20 269 1.0 7.0 0.00 0.01 0.00 84 1014.6
20190221071616 20 254 1.0 8.0 0.00 0.01 0.00 83 1014.4
20190221070136 21 257 2.0 8.0 0.00 0.01 0.00 83 1014.3
20190221064634 21 262 2.0 9.0 0.00 0.01 0.00 83 1014.3
20190221063131 21 249 1.0 11.0 0.00 0.01 0.00 82 1013.9
20190221061601 22 273 2.0 11.0 0.00 0.01 0.00 82 1013.6
20190221060059 22 261 3.0 11.0 0.00 0.01 0.00 82 1013.1
20190221054545 23 257 3.0 14.0 0.00 0.01 0.01 81 1013.0
20190221053109 24 302 5.0 20.0 0.00 0.01 0.01 80 1012.9
20190221051600 24 259 4.0 16.0 0.00 0.01 0.01 81 1012.4
20190221050030 24 251 4.0 16.0 0.00 0.01 0.01 82 1011.9
20190221044533 24 270 5.0 18.0 0.00 0.01 0.01 81 1011.7
20190221043030 25 261 7.0 21.0 0.00 0.01 0.01 82 1011.4
20190221041525 25 279 5.0 19.0 0.00 0.01 0.01 82 1011.2
20190221040058 26 286 6.0 19.0 0.00 0.01 0.01 81 1011.0
20190221034528 28 249 4.0 18.0 0.00 0.01 0.01 84 1010.7
20190221033045 28 263 4.0 15.0 0.00 0.01 0.01 87 1010.4
20190221031555 28 273 8.0 18.0 0.00 0.01 0.01 87 1010.2
20190221030045 29 252 8.0 16.0 0.00 0.01 0.01 86 1010.0
20190221024524 29 297 5.0 15.0 0.00 0.01 0.01 86 1009.7
20190221023027 29 258 6.0 16.0 0.00 0.01 0.01 87 1009.6
20190221021614 30 275 7.0 15.0 0.00 0.01 0.01 87 1009.4
20190221020021 30 264 5.0 16.0 0.00 0.01 0.01 86 1009.4
20190221014547 30 266 2.0 16.0 0.00 0.01 0.01 86 1008.9
20190221013031 30 261 10.0 20.0 0.00 0.01 0.01 84 1008.6
20190221011526 31 275 7.0 17.0 0.00 0.01 0.01 90 1008.4
20190221010025 31 263 7.0 16.0 0.00 0.01 0.01 91 1008.0
20190221004517 31 279 7.0 15.0 0.00 0.01 0.01 91 1007.6
20190221003021 31 259 5.0 13.0 0.00 0.01 0.01 92 1007.4
20190221001517 31 249 3.0 17.0 0.00 0.01 0.01 92 1007.1
20190221000030 31 271 7.0 15.0 0.00 0.01 0.01 93 1006.9
20190220234527 31 280 5.0 17.0 0.00 0.01 0.01 94 1006.5
20190220233016 31 248 3.0 15.0 0.00 0.01 0.01 95 1006.2
20190220231510 32 245 3.0 12.0 0.00 0.01 0.01 97 1006.1
20190220224505 32 246 4.0 14.0 0.00 0.01 0.01 97 1005.6
20190220223005 32 270 4.0 10.0 0.00 0.01 0.01 97 1005.5
20190220221502 32 290 2.0 14.0 0.00 0.01 0.01 97 1005.4
20190220220002 32 298 1.0 10.0 0.00 0.01 0.01 98 1005.1
20190220214502 32 232 1.0 7.0 0.00 0.01 0.01 98 1004.9
20190220213137 32 236 2.0 11.0 0.00 0.01 0.01 97 1005.1
20190220211848 32 232 2.0 10.0 0.00 0.01 0.01 97 1005.1
20190220210136 32 222 1.0 6.0 0.00 0.01 0.01 97 1005.1
20190220204655 32 145 0.0 4.0 0.01 0.02 0.01 97 1005.0
20190220203145 32 202 0.0 6.0 0.01 0.02 0.01 97 1005.0
20190220201706 32 157 1.0 5.0 0.01 0.02 0.01 97 1005.1
20190220200248 32 153 1.0 9.0 0.01 0.02 0.01 97 1005.3
20190220194605 32 152 1.0 8.0 0.00 0.02 0.00 97 1005.4
20190220193158 32 182 2.0 9.0 0.00 0.02 0.00 97 1005.4
20190220191657 32 173 1.0 12.0 0.00 0.02 0.00 97 1005.4
20190220190110 31 164 5.0 12.0 0.00 0.02 0.00 97 1005.7
20190220184653 31 157 4.0 8.0 0.00 0.03 0.00 97 1005.6
20190220183055 31 103 5.0 9.0 0.00 0.03 0.00 97 1006.2
20190220181607 30 115 3.0 10.0 0.00 0.03 0.00 97 1006.6
20190220180110 30 144 2.0 10.0 0.00 0.03 0.00 96 1007.1
20190220174609 29 133 4.0 9.0 0.00 0.03 0.00 97 1007.4
20190220173109 29 99 4.0 10.0 0.00 0.03 0.00 96 1007.9
20190220171543 29 154 5.0 10.0 0.00 0.03 0.00 96 1008.4
20190220170141 28 137 4.0 9.0 0.00 0.03 0.00 96 1008.8
20190220164546 28 96 6.0 13.0 0.00 0.03 0.00 96 1008.8
20190220163105 27 107 6.0 11.0 0.00 0.03 0.00 96 1009.2